Probability
1 1 1 1 1 2 2 1 0 0 0 0 0 0 0 0 0 0 0 0 0 0 0 0 0 0 0 0 0 0 0 0 0 0 0 0 0 0 0 0 0 0 0
3 2 1 0 1 1 1 0 0 0 0 0 0 0 0 0 0 0 0 0 0 0 0 0 0 0 0 0 0 0 0 0 0 0 0 0 0 0 0 0 0 0 0
4 3 1 0 0 0 0 0 0 0 0 0 0 0 0 0 0 0 0 0 0 0 0 0 0 0 0 0 0 0 0 0 0 0 0 0 0 0 0 0 0 0 0
11 8 3 0 0 0 0 0 0 0 0 0 0 0 0 0 0 0 0 0 0 0 0 0 0 0 0 0 0 0 0 0 0 0 0 0 0 0 0 0 0 0 0
20 15 7 1 0 0 0 0 0 0 0 0 0 0 0 0 0 0 0 0 0 0 0 0 0 0 0 0 0 0 0 0 0 0 0 0 0 0 0 0 0 0 0
20 16 8 2 3 3 1 0 0 0 0 0 0 0 0 0 0 0 0 0 0 0 0 0 0 0 0 0 0 0 0 0 0 0 0 0 0 0 0 0 0 0 0
14 11 5 5 12 13 5 0 0 0 0 0 0 0 0 0 0 0 0 0 0 0 0 0 0 0 0 0 0 0 0 0 0 0 0 0 0 0 0 0 0 0 0
11 11 9 14 27 27 12 2 0 0 0 0 0 0 0 0 0 0 0 0 0 0 0 0 0 0 0 0 0 0 0 0 0 0 0 0 0 0 0 0 0 0 0
19 23 26 32 40 34 15 3 0 0 0 0 0 0 0 0 0 0 0 0 0 0 0 0 0 0 0 0 0 0 0 0 0 0 0 0 0 0 0 0 0 0 0
31 33 37 41 40 27 11 2 0 0 0 0 0 0 0 0 0 0 0 0 0 0 0 0 0 0 0 0 0 0 0 0 0 0 0 0 0 0 0 0 0 0 0
25 23 24 27 23 14 4 0 0 0 0 0 0 0 0 0 0 0 0 0 0 0 0 0 0 0 0 0 0 0 0 0 0 0 0 0 0 0 0 0 0 0 0
7 6 6 7 6 3 1 0 0 0 0 0 0 0 0 0 0 0 0 0 0 0 0 0 0 0 0 0 0 0 0 0 0 0 0 0 0 0 0 0 0 0 0
0 0 0 0 0 0 0 0 0 0 0 0 0 0 0 0 0 0 0 0 0 0 0 0 0 0 0 0 0 0 0 0 0 0 0 0 0 0 0 0 0 0 0
0 0 0 0 0 0 0 0 0 0 0 0 0 0 0 0 0 0 0 0 0 0 0 0 0 0 0 0 0 0 0 0 0 0 0 0 0 0 0 0 0 0 0
0 0 0 0 0 0 0 0 0 0 0 0 0 0 0 0 0 0 0 0 0 0 0 0 0 0 0 0 0 0 0 0 0 0 0 0 0 0 0 0 0 0 0
0 0 0 0 0 0 0 0 0 0 0 0 0 0 0 0 0 0 0 0 0 0 0 0 0 0 0 0 0 0 0 0 0 0 0 0 0 0 0 0 0 0 0
0 0 0 0 0 0 0 0 0 0 0 0 0 0 0 0 0 0 0 0 0 0 0 0 0 0 0 0 0 0 0 0 0 0 0 0 0 0 0 0 0 0 0
0 0 0 0 0 0 0 0 0 0 0 0 0 0 0 0 0 0 0 0 0 0 0 0 0 0 0 0 0 0 0 0 0 0 0 0 0 0 0 0 0 0 0
0 0 0 0 0 0 0 0 0 0 0 0 0 0 0 0 0 0 0 0 0 0 0 0 0 0 0 0 0 0 0 0 0 0 0 0 0 0 0 0 0 0 0
0 0 0 0 0 0 0 0 0 0 0 0 0 0 0 0 0 0 0 0 0 0 0 0 0 0 0 0 0 0 0 0 0 0 0 0 0 0 0 0 0 0 0
0 0 0 0 0 0 0 0 0 0 0 0 0 0 0 0 0 0 0 0 0 0 0 0 0 0 0 0 0 0 0 0 0 0 0 0 0 0 0 0 0 0 0
0 0 0 0 0 0 0 0 0 0 0 0 0 0 0 0 0 0 0 0 0 0 0 0 0 0 0 0 0 0 0 0 0 0 0 0 0 0 0 0 0 0 0
0 0 0 0 0 0 0 0 0 0 0 0 0 0 0 0 0 0 0 0 0 0 0 0 0 0 0 0 0 0 0 0 0 0 0 0 0 0 0 0 0 0 0
0 0 0 0 0 0 0 0 0 0 0 0 0 0 0 0 0 0 0 0 0 0 0 0 0 0 0 0 0 0 0 0 0 0 0 0 0 0 0 0 0 0 0
0 0 0 0 0 0 0 0 0 0 0 0 0 0 0 0 0 0 0 0 0 0 0 0 0 0 0 0 0 0 0 0 0 0 0 0 0 0 0 0 0 0 0
0 0 0 0 0 0 0 0 0 0 0 0 0 0 0 0 0 0 0 0 0 0 0 0 0 0 0 0 0 0 0 0 0 0 0 0 0 0 0 0 0 0 0
Wind_Speed
7 6 5 3 3 3 4 4 3 3 2 4 4 4 5 4 5 5 4 4 4 4 5 6 6 4 2 8 4 5 5 6 6 4 4 5 6 7 8 7 6 5 6
6 7 6 5 4 1 5 6 3 0 1 2 4 5 5 5 6 6 7 7 7 7 7 8 8 7 9 10 5 6 6 7 8 9 7 4 4 6 6 7 7 7 4
6 7 7 8 8 7 6 4 2 3 3 4 5 5 4 5 6 6 7 8 8 8 8 9 9 10 8 7 6 6 7 8 8 9 8 3 3 4 5 7 8 5 5
9 8 7 8 8 8 6 4 3 4 5 5 4 3 4 5 5 6 7 8 8 8 8 7 6 6 10 9 7 7 9 11 10 10 9 6 3 4 5 6 5 3 4
8 9 9 8 6 6 5 4 4 4 4 3 2 2 3 4 5 4 5 6 5 4 4 2 4 7 10 6 3 2 6 10 11 10 9 7 5 6 6 5 6 4 4
8 8 7 6 7 6 4 3 3 2 1 3 4 3 4 4 2 1 3 3 3 4 4 3 5 5 7 7 7 9 7 7 12 12 9 10 9 7 6 5 5 5 3
9 7 6 4 5 5 4 3 2 1 2 4 4 4 3 3 6 4 3 3 3 3 3 3 4 4 4 5 7 8 7 2 8 12 13 13 12 12 11 8 7 7 4
7 9 8 6 6 6 5 5 4 3 4 4 4 3 2 4 7 6 5 3 4 3 3 4 5 4 2 3 4 5 7 6 7 10 12 12 11 11 11 8 7 6 4
6 8 8 7 7 6 6 5 4 4 5 4 3 3 3 4 8 8 6 2 2 3 4 4 6 5 5 5 4 2 4 3 5 8 12 15 17 17 13 9 8 6 5
5 5 5 5 6 5 5 5 4 4 4 3 2 2 3 4 9 10 8 2 2 2 2 2 4 7 9 6 4 5 4 3 4 6 8 16 17 17 16 10 9 8 6
4 4 3 3 5 5 5 4 4 3 3 3 3 3 3 3 8 10 8 2 3 4 3 2 1 8 9 8 6 4 1 3 4 7 7 8 8 8 8 7 7 7 6
2 2 3 4 4 5 5 4 3 3 3 4 3 3 2 3 7 8 9 5 3 4 4 3 3 8 8 8 5 3 0 2 3 5 7 6 6 6 6 7 9 7 5
1 2 3 3 4 4 3 4 3 3 3 3 3 3 3 3 5 11 11 8 4 3 5 9 9 9 8 5 7 7 5 2 3 5 6 5 5 6 5 4 7 7 3
2 1 1 2 2 2 2 3 3 3 4 3 3 3 3 3 3 5 5 5 5 5 5 9 10 8 5 5 5 4 3 4 4 4 5 5 5 5 4 3 3 4 3
2 2 2 1 1 1 1 1 1 0 1 2 1 1 2 3 4 7 7 6 5 6 7 4 4 4 3 3 2 3 3 4 3 4 6 6 5 4 3 3 3 3 3
1 1 2 2 2 1 1 3 5 4 6 6 6 3 2 2 4 6 7 7 10 15 8 4 4 5 5 5 4 3 2 3 3 5 7 6 6 5 4 3 3 4 4
1 1 1 2 1 1 1 2 3 3 3 3 5 5 5 5 5 5 5 6 12 15 6 5 4 4 4 4 4 3 3 3 3 5 6 6 5 5 5 4 4 4 4
2 2 1 0 1 1 2 3 3 3 4 3 3 4 5 5 5 6 7 7 6 8 4 6 6 5 5 5 4 4 3 3 3 4 4 5 5 5 5 6 5 5 5
1 0 1 1 2 2 2 3 3 3 3 4 4 4 4 4 4 5 7 3 4 5 4 4 4 5 5 6 6 6 5 4 4 4 4 5 5 5 5 5 5 7 6
2 2 1 1 2 1 1 1 1 2 3 3 3 3 4 3 2 3 3 3 3 3 3 3 3 4 5 5 6 6 6 6 6 5 5 5 4 4 5 6 5 5 5
1 3 2 1 1 1 1 1 2 2 3 2 2 4 4 2 3 3 3 3 3 3 3 3 3 3 4 4 5 6 7 6 6 5 5 6 5 5 4 5 5 5 5
1 1 0 1 1 2 2 1 1 2 3 3 3 4 3 1 2 2 2 3 3 3 3 4 4 4 5 5 6 6 6 6 6 5 5 5 5 5 5 4 5 5 5
1 1 1 1 2 3 2 1 2 3 3 3 3 3 3 2 2 3 3 3 3 3 3 3 4 4 4 4 5 5 5 5 5 6 6 5 5 5 5 6 6 6 6
1 1 1 2 2 1 1 2 3 3 3 3 3 3 3 3 3 3 4 4 4 4 4 4 5 7 9 7 6 6 6 6 7 8 11 9 8 6 6 6 6 7 6
2 2 2 2 2 1 1 1 2 3 3 3 2 2 2 2 2 1 2 3 4 4 5 5 4 6 10 12 11 10 12 16 15 7 6 8 8 8 7 6 6 6 6
3 3 2 2 2 2 1 1 1 2 2 2 2 2 2 2 2 2 1 2 2 3 3 4 5 6 5 7 10 11 13 15 15 10 3 4 6 6 7 6 7 6 6
Wind_Direction
165 149 127 105 74 332 308 266 214 182 180 169 185 226 242 220 202 194 202 201 204 196 183 185 198 196 210 248 190 149 146 135 127 110 117 134 128 125 126 134 119 89 78
137 137 137 138 140 209 289 297 313 222 196 213 218 221 228 222 212 201 196 199 199 201 198 195 202 208 225 226 166 161 148 141 136 134 140 136 146 144 140 133 122 109 95
163 160 163 173 177 187 225 261 314 310 268 241 228 229 239 237 217 207 197 199 199 199 198 202 204 196 208 222 171 158 142 138 130 141 147 129 141 149 141 122 114 118 116
171 172 182 189 185 180 191 217 233 256 257 253 239 225 233 244 241 223 213 208 205 202 200 211 219 207 190 187 171 165 140 137 137 142 146 144 144 163 150 136 126 149 147
166 177 187 186 176 169 177 197 218 249 285 305 286 270 257 248 251 254 244 223 217 202 174 169 76 65 65 62 95 115 144 148 147 148 153 155 159 176 175 158 155 157 117
183 187 174 176 160 156 165 203 232 225 266 304 292 267 255 244 215 227 262 236 225 155 148 150 134 110 104 102 91 71 60 156 160 156 163 174 176 174 172 160 154 149 166
184 159 145 161 144 146 163 207 240 269 262 264 272 256 242 158 145 164 173 144 93 92 123 142 124 109 131 141 133 111 84 124 173 160 168 179 180 177 174 170 167 166 168
174 153 159 175 163 164 183 204 206 227 244 238 258 251 214 159 164 159 151 144 144 160 157 134 130 138 133 104 141 151 156 177 183 166 176 178 174 169 172 165 157 158 139
160 156 162 166 161 166 182 198 207 224 225 213 233 214 196 173 173 172 170 209 193 182 174 169 158 158 152 115 107 118 130 122 94 115 156 164 162 164 165 157 155 143 139
120 121 131 146 156 173 193 206 213 228 219 189 213 212 208 190 175 175 185 201 162 115 69 86 142 163 159 136 113 88 127 171 139 101 110 145 159 166 165 161 159 154 146
111 127 153 174 179 189 205 212 209 217 207 197 210 216 222 192 167 173 186 200 158 149 145 132 150 172 167 147 129 110 106 232 177 139 126 129 144 158 162 156 158 160 161
114 180 207 207 208 211 205 206 190 197 206 209 218 218 222 188 166 180 183 185 142 154 161 163 164 158 162 155 139 128 106 207 197 151 137 140 149 164 170 163 167 186 188
321 244 245 241 233 236 189 165 184 203 206 208 200 204 205 203 173 178 181 177 165 158 160 159 154 142 136 142 149 152 147 186 210 160 151 153 154 162 163 159 164 176 145
311 323 319 292 268 237 180 166 185 205 203 208 206 209 210 209 186 163 167 159 138 114 121 137 133 125 110 122 143 161 176 205 196 158 142 132 127 138 152 145 132 130 118
275 226 223 235 309 322 111 103 165 139 169 167 166 180 197 214 206 179 165 167 166 147 131 126 129 138 144 147 166 197 206 197 184 136 128 125 121 123 138 131 122 121 135
307 233 205 208 230 218 161 127 84 98 109 107 100 87 74 79 146 161 166 164 154 145 134 149 157 161 166 167 172 181 193 180 159 135 137 138 142 150 161 160 145 150 170
21 321 219 208 196 186 191 185 166 127 116 131 133 121 117 114 115 140 150 153 157 153 149 163 170 165 156 151 158 169 179 174 141 135 143 149 154 162 167 172 169 171 190
64 25 331 267 175 192 211 211 198 178 170 161 159 145 134 134 139 143 142 137 159 178 184 176 182 176 169 165 168 175 173 156 149 151 153 158 164 170 174 178 178 182 194
105 213 257 204 176 207 221 213 198 180 153 142 138 131 121 119 131 155 158 168 173 191 204 190 185 185 181 179 179 180 177 171 172 171 169 172 174 174 178 180 180 192 197
160 153 305 195 171 199 245 66 89 108 118 129 140 133 133 147 165 172 184 181 182 189 192 184 185 189 182 177 172 173 175 178 184 188 183 179 185 186 184 185 187 188 198
152 157 200 238 193 161 108 68 67 90 108 121 119 109 131 177 182 189 187 184 187 193 189 179 176 176 170 164 167 175 178 181 187 193 192 185 189 196 194 189 195 196 189
125 108 80 31 128 128 126 135 117 106 111 116 119 124 132 136 149 185 196 198 193 189 179 177 187 188 185 179 172 176 184 186 189 198 202 193 190 193 194 197 198 200 199
89 111 126 89 110 126 151 143 122 121 128 138 138 143 168 180 173 186 195 202 205 198 187 188 195 198 190 188 180 177 191 201 205 206 203 198 193 194 195 203 210 207 207
124 109 85 89 94 126 137 129 129 135 142 150 155 164 182 198 197 196 192 187 198 211 204 199 202 204 199 194 195 195 204 217 228 227 204 197 195 195 194 200 208 213 213
131 105 91 88 96 81 60 61 137 149 155 165 170 172 180 202 222 210 185 183 192 204 209 205 207 212 209 202 198 202 212 225 237 239 204 193 192 192 192 202 207 212 212
105 100 97 90 86 77 46 22 58 87 109 129 155 170 180 194 206 198 191 195 205 218 219 215 218 222 221 205 207 210 215 219 221 222 205 195 197 199 196 204 209 210 212